Regional Weather Roundup
Issued by NWS State College, PA

Home | Current Version | Previous Version | Text Only | Print | Product List | Glossary Off
Versions: 1 2 3 4 5 6 7 8 9 10 11 12 13 14 15 16 17 18 19 20 21 22 23 24 25 26 27 28 29 30 31 32 33 34 35 36 37 38 39 40 41 42 43 44 45 46 47 48 49 50

000
ASUS41 KCTP 262003
RWRCTP

REGIONAL WEATHER ROUNDUP
NATIONAL WEATHER SERVICE STATE COLLEGE PA
300 PM EST MON JAN 26 2015

Note: "fair" indicates few or no clouds below 12,000 feet with no
significant weather and/or obstructions to visibility.

* = STATION THAT DOES NOT REPORT PRECIPITATION /E.G. RAIN...SNOW...ETC/
    THUNDER OR FOG.

PAZ002>004-007>009-013>016-020>023-029>032-262100-
WESTERN PENNSYLVANIA

CITY           SKY/WX    TMP DP  RH WIND       PRES   REMARKS
ERIE           LGT SNOW  21  16  81 NE16      29.81S WCI   7
MEADVILLE      LGT SNOW  22  17  81 N8        29.73S VSB 1   WCI  12
FRANKLIN*      CLOUDY    23  18  80 N3        29.73R
NEW CASTLE     LGT SNOW  23  20  89 N6        29.76R FOG
BEAVER COUNTY  LGT SNOW  25  23  93 N8        29.72R
BUTLER*        CLOUDY    25  21  86 N6        29.72R VSB 1
PITTSBURGH INT LGT SNOW  26  22  84 N10       29.70R
PITTSBURGH     LGT SNOW  27  22  81 NW10      29.67R VSB 3/4
INDIANA*       FOG       25  23  93 E9        29.72R VSB 1
LATROBE        LGT SNOW  32  28  86 NE5       29.68S
WASHINGTON CO* CLOUDY    27  23  86 CALM      29.71R
$$

PAZ004>006-010>012-017>019-024>028-033>037-041-042-045-046-049>053-262100-
CENTRAL PENNSYLVANIA

CITY           SKY/WX    TMP DP  RH WIND       PRES   REMARKS
BRADFORD       LGT SNOW  20  14  77 E9        29.69S WCI   9
DUBOIS         LGT SNOW  21  17  84 E9        29.68S VSB 3/4 WCI  11
CLEARFIELD     LGT SNOW  20  16  84 NE7       29.72F FOG     WCI  11
JOHNSTOWN      LGT SNOW  24  21  88 NE3       29.62R FOG
ALTOONA        LGT SNOW  22  19  89 NE7       29.70S FOG     WCI  13
STATE COLLEGE  LGT SNOW  21  18  86 NE8       29.75F FOG     WCI  12
WILLIAMSPORT   LGT SNOW  24  20  84 CALM      29.82S FOG
SELINSGROVE    LGT SNOW  26  21  81 NE7       29.81S
FT INDIANTOWN  CLOUDY    24  18  77 E8        29.79S
CAPITAL CITY   CLOUDY    24  18  77 NE10      29.79F WCI  14
HARRISBURG     CLOUDY    24  18  77 NE7       29.79F
YORK           LGT SNOW  25  20  81 NE7       29.76S
$$

PAZ038>040-043-044-047-048-054-055-060>062-067>071-262100-
EASTERN PENNSYLVANIA

CITY           SKY/WX    TMP DP  RH WIND       PRES   REMARKS
SCRANTON       LGT SNOW  22  13  68 NE13G20   29.81F WCI  10
MOUNT POCONO   SNOW      18  13  80 E14       29.71F VSB 1/2 WCI   4
ALLENTOWN      LGT SNOW  21  14  74 NE18      29.83F WCI   6
QUAKERTOWN*    NOT AVBL
READING        CLOUDY    22  16  78 NE13      29.79F WCI  10
LANCASTER      CLOUDY    24  18  77 NE9       29.77S WCI  14
COATESVILLE    LGT SNOW  27  25  93 NE8G20    29.74S
POTTSTOWN      FLURRIES  24  18  77 NE15G22   29.81R WCI  11
BLUE BELL      PTSUNNY   28  23  80 NE13G18   29.79R
DOYLESTOWN     LGT SNOW  22  19  89 NE10G23   29.79F FOG     WCI  11
WILLOW GROVE   NOT AVBL
NORTH PHILA    LGT SNOW  27  19  72 NE17G25   29.82S WCI  14
PHILADELPHIA   LGT SNOW  28  23  81 NE22G30   29.79R WCI  14
$$



USA.gov is the U.S. government's official web portal to all federal, state and local government web resources and services.